When you browse on this site, cookies collect data to enhance your experience and personalize the content and advertising you see.
Visit our Privacy Policy to learn more. By continuing to use the site, you agree to this use of cookies and data.
  • In Schweiz
  • Länderverzeichnis
  • Für 7 Tage
  • Wassertemperatur
  • Satellitenkarten
  • Wetterkarte
  • Widgets
  • user-avatar
    Anmelden

    Stündliche Wetter Lotkazino

    Heute, 17 November, Samstag

    Zeit Temperatur Niederschläge Wind Luftdruck Luftfeuchtigkeit
    00:00 -2°C° 0 mm 1 m/S 774 mmHg 23%
    01:00 -2°C° 0 mm 1 m/S 773 mmHg 23%
    02:00 -2°C° 0 mm 1 m/S 773 mmHg 23%
    03:00 -3°C° 0 mm 1 m/S 773 mmHg 24%
    04:00 -3°C° 0 mm 1 m/S 772 mmHg 24%
    05:00 -3°C° 0 mm 1 m/S 772 mmHg 25%
    06:00 -5°C° 0 mm 2 m/S 771 mmHg 25%
    07:00 -5°C° 0 mm 2 m/S 771 mmHg 26%
    08:00 -5°C° 0 mm 2 m/S 770 mmHg 26%
    09:00 -4°C° 0 mm 2 m/S 770 mmHg 26%
    10:00 -4°C° 0 mm 3 m/S 770 mmHg 25%
    11:00 -2°C° 0 mm 3 m/S 769 mmHg 24%
    12:00 -1°C° 0 mm 3 m/S 769 mmHg 23%
    13:00 -1°C° 0 mm 3 m/S 768 mmHg 24%
    14:00 -2°C° 0 mm 4 m/S 767 mmHg 25%
    15:00 +1°C° 0 mm 2 m/S 766 mmHg 27%
    16:00 -1°C° 0 mm 3 m/S 766 mmHg 28%
    17:00 -1°C° 0 mm 3 m/S 765 mmHg 30%
    18:00 -3°C° 0 mm 4 m/S 764 mmHg 31%
    19:00 -3°C° 0 mm 4 m/S 764 mmHg 33%
    20:00 -3°C° 0 mm 4 m/S 763 mmHg 35%
    21:00 -3°C° 0 mm 4 m/S 762 mmHg 37%
    22:00 -3°C° 0 mm 4 m/S 762 mmHg 39%
    23:00 -3°C° 0 mm 4 m/S 761 mmHg 41%

    Morgen, 18 November, Sonntag

    Zeit Temperatur Niederschläge Wind Luftdruck Luftfeuchtigkeit
    00:00 -3°C° 0 mm 4 m/S 761 mmHg 43%
    01:00 -3°C° 0.1 mm 4 m/S 760 mmHg 48%
    02:00 -3°C° 0.1 mm 4 m/S 760 mmHg 53%
    03:00 -3°C° 0.1 mm 4 m/S 759 mmHg 58%
    04:00 -3°C° 0.1 mm 4 m/S 759 mmHg 64%
    05:00 -3°C° 0.1 mm 4 m/S 758 mmHg 70%
    06:00 -2°C° 0.1 mm 3 m/S 758 mmHg 77%
    07:00 -2°C° 0.1 mm 3 m/S 758 mmHg 76%
    08:00 -2°C° 0.1 mm 3 m/S 758 mmHg 76%
    09:00 -2°C° 0.1 mm 3 m/S 757 mmHg 75%
    10:00 -2°C° 0.1 mm 3 m/S 757 mmHg 75%
    11:00 -1°C° 0.1 mm 3 m/S 757 mmHg 74%
    12:00 -1°C° 0.1 mm 3 m/S 758 mmHg 73%
    13:00 -1°C° 0 mm 2 m/S 758 mmHg 75%
    14:00 -1°C° 0 mm 2 m/S 758 mmHg 76%
    15:00 -1°C° 0 mm 2 m/S 758 mmHg 78%
    16:00 -1°C° 0 mm 2 m/S 758 mmHg 80%
    17:00 -1°C° 0 mm 2 m/S 758 mmHg 83%
    18:00 -1°C° 0 mm 2 m/S 759 mmHg 85%
    19:00 +1°C° 0 mm 1 m/S 759 mmHg 87%
    20:00 0°C° 0 mm 1 m/S 759 mmHg 89%
    21:00 0°C° 0 mm 1 m/S 759 mmHg 90%
    22:00 0°C° 0 mm 1 m/S 759 mmHg 91%
    23:00 0°C° 0 mm 1 m/S 759 mmHg 92%

    übermorgen, 19 November, Montag

    Zeit Temperatur Niederschläge Wind Luftdruck Luftfeuchtigkeit
    00:00 0°C° 0 mm 1 m/S 760 mmHg 92%
    01:00 0°C° 0 mm 1 m/S 760 mmHg 92%
    02:00 0°C° 0 mm 1 m/S 760 mmHg 92%
    03:00 +1°C° 0 mm 1 m/S 761 mmHg 92%
    04:00 0°C° 0 mm 1 m/S 761 mmHg 93%
    05:00 0°C° 0 mm 1 m/S 761 mmHg 94%
    06:00 -1°C° 0 mm 0 m/S 761 mmHg 94%
    07:00 -1°C° 0 mm 0 m/S 762 mmHg 94%
    08:00 -1°C° 0 mm 0 m/S 762 mmHg 94%
    09:00 -1°C° 0 mm 0 m/S 762 mmHg 94%
    10:00 0°C° 0 mm 0 m/S 763 mmHg 91%
    11:00 +1°C° 0 mm 0 m/S 763 mmHg 87%
    12:00 +1°C° 0 mm 0 m/S 763 mmHg 84%
    13:00 +1°C° 0 mm 0 m/S 763 mmHg 86%
    14:00 +2°C° 0 mm 1 m/S 763 mmHg 88%
    15:00 +2°C° 0 mm 1 m/S 764 mmHg 90%
    16:00 +1°C° 0 mm 1 m/S 764 mmHg 91%
    17:00 0°C° 0 mm 1 m/S 764 mmHg 93%
    18:00 0°C° 0 mm 1 m/S 764 mmHg 94%
    19:00 0°C° 0 mm 1 m/S 764 mmHg 95%
    20:00 0°C° 0 mm 1 m/S 764 mmHg 95%
    21:00 0°C° 0 mm 1 m/S 764 mmHg 96%
    22:00 0°C° 0 mm 1 m/S 764 mmHg 96%
    23:00 -2°C° 0 mm 2 m/S 764 mmHg 96%

    20 November, Dienstag

    Zeit Temperatur Niederschläge Wind Luftdruck Luftfeuchtigkeit
    00:00 -2°C° 0 mm 2 m/S 765 mmHg 96%
    01:00 -2°C° 0 mm 2 m/S 765 mmHg 96%
    02:00 -2°C° 0 mm 2 m/S 765 mmHg 96%
    03:00 -1°C° 0 mm 2 m/S 765 mmHg 95%
    04:00 -2°C° 0 mm 2 m/S 764 mmHg 95%
    05:00 0°C° 0 mm 1 m/S 764 mmHg 95%
    06:00 0°C° 0 mm 1 m/S 764 mmHg 94%
    07:00 0°C° 0 mm 1 m/S 764 mmHg 94%
    08:00 0°C° 0 mm 1 m/S 764 mmHg 93%
    09:00 0°C° 0 mm 1 m/S 764 mmHg 93%
    10:00 0°C° 0 mm 1 m/S 764 mmHg 88%
    11:00 +1°C° 0 mm 1 m/S 764 mmHg 84%
    12:00 +1°C° 0 mm 1 m/S 763 mmHg 79%
    13:00 +1°C° 0 mm 1 m/S 763 mmHg 79%
    14:00 +1°C° 0 mm 1 m/S 763 mmHg 79%
    15:00 +1°C° 0 mm 1 m/S 762 mmHg 79%
    16:00 -1°C° 0 mm 2 m/S 762 mmHg 81%
    17:00 -2°C° 0 mm 2 m/S 762 mmHg 83%
    18:00 -2°C° 0 mm 2 m/S 762 mmHg 85%
    19:00 -3°C° 0 mm 2 m/S 762 mmHg 85%
    20:00 -3°C° 0 mm 2 m/S 761 mmHg 86%
    21:00 -3°C° 0 mm 2 m/S 761 mmHg 86%
    22:00 -4°C° 0 mm 2 m/S 761 mmHg 86%
    23:00 -4°C° 0 mm 2 m/S 761 mmHg 87%

    21 November, Mittwoch

    Zeit Temperatur Niederschläge Wind Luftdruck Luftfeuchtigkeit
    00:00 -4°C° 0 mm 2 m/S 760 mmHg 87%
    01:00 -4°C° 0 mm 2 m/S 760 mmHg 87%
    02:00 -4°C° 0 mm 2 m/S 760 mmHg 87%
    03:00 -4°C° 0 mm 2 m/S 760 mmHg 87%
    04:00 -4°C° 0 mm 2 m/S 759 mmHg 87%
    05:00 -6°C° 0 mm 3 m/S 759 mmHg 88%
    06:00 -6°C° 0 mm 3 m/S 759 mmHg 88%
    07:00 -6°C° 0 mm 3 m/S 758 mmHg 88%
    08:00 -6°C° 0 mm 3 m/S 758 mmHg 88%
    09:00 -5°C° 0 mm 3 m/S 758 mmHg 87%
    10:00 -5°C° 0 mm 3 m/S 758 mmHg 84%
    11:00 -4°C° 0 mm 3 m/S 758 mmHg 81%
    12:00 -4°C° 0 mm 4 m/S 758 mmHg 78%
    13:00 -4°C° 0 mm 4 m/S 758 mmHg 78%
    14:00 -4°C° 0 mm 3 m/S 758 mmHg 79%
    15:00 -4°C° 0 mm 3 m/S 758 mmHg 79%
    16:00 -4°C° 0 mm 3 m/S 758 mmHg 80%
    17:00 -4°C° 0 mm 3 m/S 758 mmHg 80%
    18:00 -2°C° 0 mm 3 m/S 758 mmHg 81%
    19:00 -4°C° 0 mm 3 m/S 758 mmHg 81%
    20:00 -4°C° 0 mm 3 m/S 758 mmHg 82%
    21:00 -4°C° 0 mm 3 m/S 758 mmHg 83%
    22:00 -4°C° 0 mm 3 m/S 758 mmHg 84%
    23:00 -4°C° 0 mm 3 m/S 758 mmHg 85%

    22 November, Donnerstag

    Zeit Temperatur Niederschläge Wind Luftdruck Luftfeuchtigkeit
    00:00 -4°C° 0 mm 3 m/S 758 mmHg 86%
    01:00 -5°C° 0 mm 3 m/S 758 mmHg 87%
    02:00 -5°C° 0 mm 3 m/S 758 mmHg 88%
    03:00 -6°C° 0 mm 3 m/S 758 mmHg 89%
    04:00 -6°C° 0 mm 3 m/S 757 mmHg 88%
    05:00 -6°C° 0 mm 3 m/S 757 mmHg 87%
    06:00 -7°C° 0 mm 3 m/S 757 mmHg 86%
    07:00 -6°C° 0 mm 3 m/S 756 mmHg 85%
    08:00 -7°C° 0 mm 4 m/S 756 mmHg 84%
    09:00 -7°C° 0 mm 4 m/S 755 mmHg 83%
    10:00 -6°C° 0 mm 5 m/S 755 mmHg 79%
    11:00 -5°C° 0 mm 5 m/S 754 mmHg 75%
    12:00 -5°C° 0 mm 6 m/S 753 mmHg 71%
    13:00 -5°C° 0 mm 6 m/S 753 mmHg 72%
    14:00 -5°C° 0 mm 6 m/S 753 mmHg 73%
    15:00 -5°C° 0 mm 6 m/S 752 mmHg 74%
    16:00 -5°C° 0 mm 6 m/S 752 mmHg 75%
    17:00 -5°C° 0 mm 6 m/S 752 mmHg 76%
    18:00 -5°C° 0 mm 6 m/S 752 mmHg 77%
    19:00 -4°C° 0 mm 6 m/S 752 mmHg 78%
    20:00 -4°C° 0 mm 6 m/S 752 mmHg 79%
    21:00 -3°C° 0 mm 6 m/S 753 mmHg 81%
    22:00 -4°C° 0.1 mm 5 m/S 753 mmHg 77%
    23:00 -5°C° 0.1 mm 5 m/S 754 mmHg 73%
    Mehr zeigen